SKYSAT-C7 (42991 NORAD) Tracking and Keplerian Element Data

This shows tracking and keplerian element data for the satellite.

Feedback or suggestion? Click here.




ElementValue
Catalog42991
NameSKYSAT-C7
Epoch Orbit7709
Epoch Day82.13733975
Epoch Year2019
RAAN197.1709
Inclination97.4213
Eccentricity0.0004919
Argument of Perigee216.4494
Mean Anonmoly265.367
Mean Motion15.21642369
Decay Rate7.1E-06
L11 42991U 17068E 19082.13733975 .00000710 00000-0 34490-4 0 9997
L22 42991 97.4213 197.1709 0004919 216.4494 265.3670 15.21642369 77091

Live tracking and technical data element details for SKYSAT-C7 (NORAD 42991). SKYSAT-C7 can be tracked NOW for your location showing map with azimuth and elevation plus other details from your city location.

Track the satellite on the map from your city or location and see movement details for azimuth, elevation, latitude, longitude, range, height, and movement on the map or in text.







IsCatalogInMostPopularTable: catalog: 42991, numindb: 211
Update: records affected: 1



GetName: 42991 SKYSAT-C7

Hit Count: updated at: Sun, 24 Mar 2019 08:50:19 GMT